Location: Boda
(47.1872°N, 9.5454°E)
Time: 18:37:38
(UTC+00:00)

KORONAS-FOTON - Pass Details

Date: 14 May 2021
Orbit: 504 x 532 km, 82.4° (Epoch: 15 June)

Event Time Altitude Azimuth Distance (km) Brightness Sun altitude
Exits shadow 00:59:40 40° 141° (SE) 800 4.5 -20.3°
Maximum altitude 01:00:39 51° 95° (E) 678 4.4 -20.3°
Drops below altitude 10° 01:04:28 10° 19° (NNE) 1,791 7.7 -20.0°
Sets 01:06:40 0° 14° (NNE) 2,684 8.9 -19.8°
